TimePST,TemperatureF,Dew PointF,Humidity,Sea Level PressureIn,VisibilityMPH,Wind Direction,Wind SpeedMPH,Gust SpeedMPH,PrecipitationIn,Events,Conditions,WindDirDegrees,DateUTC
12:05 AM,30.2,30.2,100,29.94,1.5,SE,3.5,-,N/A,,Partly Cloudy,140,2012-11-10 08:05:00
12:09 AM,32.0,32.0,100,29.94,3.0,SE,3.5,-,N/A,,Scattered Clouds,140,2012-11-10 08:09:00
12:11 AM,32.0,32.0,100,29.94,1.8,SE,3.5,-,N/A,,Mostly Cloudy,140,2012-11-10 08:11:00
12:13 AM,33.8,33.8,100,29.94,0.8,SE,3.5,-,N/A,,Mist,130,2012-11-10 08:13:00
12:23 AM,32.0,32.0,100,29.95,0.2,Calm,Calm,-,N/A,Fog,Fog,0,2012-11-10 08:23:00
12:55 AM,32.0,32.0,100,29.95,0.5,Calm,Calm,-,N/A,Fog,Fog,0,2012-11-10 08:55:00
1:18 AM,32.0,32.0,100,29.95,1.5,SE,3.5,-,N/A,,Overcast,130,2012-11-10 09:18:00
1:27 AM,32.0,32.0,100,29.96,3.0,SE,4.6,-,N/A,,Mostly Cloudy,140,2012-11-10 09:27:00
1:40 AM,32.0,32.0,100,29.96,9.0,SSE,3.5,-,N/A,,Scattered Clouds,150,2012-11-10 09:40:00
1:55 AM,32.0,32.0,100,29.97,9.0,SE,3.5,-,N/A,,Clear,130,2012-11-10 09:55:00
2:55 AM,30.9,30.0,96,29.98,7.0,ESE,3.5,-,N/A,,Clear,110,2012-11-10 10:55:00
3:55 AM,30.0,30.0,100,29.98,7.0,Calm,Calm,-,N/A,,Clear,0,2012-11-10 11:55:00
4:55 AM,30.0,28.9,96,30.00,9.0,ESE,3.5,-,N/A,,Mostly Cloudy,110,2012-11-10 12:55:00
5:55 AM,32.0,32.0,100,30.01,9.0,ESE,4.6,-,N/A,,Overcast,120,2012-11-10 13:55:00
6:55 AM,33.1,33.1,100,30.01,6.0,ESE,4.6,-,N/A,,Overcast,110,2012-11-10 14:55:00
7:55 AM,33.1,33.1,100,30.05,10.0,SE,4.6,-,N/A,,Overcast,130,2012-11-10 15:55:00
8:55 AM,35.1,35.1,100,30.06,8.0,SE,3.5,-,N/A,,Overcast,130,2012-11-10 16:55:00
9:55 AM,37.0,36.0,96,30.07,9.0,ESE,4.6,-,N/A,,Mostly Cloudy,110,2012-11-10 17:55:00
10:55 AM,41.0,35.1,79,30.09,10.0,ESE,3.5,-,N/A,,Clear,110,2012-11-10 18:55:00
11:55 AM,41.0,36.0,82,30.09,10.0,SE,3.5,-,N/A,,Scattered Clouds,130,2012-11-10 19:55:00
12:55 PM,46.0,35.1,66,30.10,10.0,Calm,Calm,-,N/A,,Clear,0,2012-11-10 20:55:00
1:55 PM,46.9,37.0,68,30.10,10.0,Variable,3.5,-,N/A,,Clear,0,2012-11-10 21:55:00
2:55 PM,46.0,35.1,66,30.11,10.0,NE,3.5,-,N/A,,Scattered Clouds,40,2012-11-10 22:55:00
3:55 PM,44.1,34.0,68,30.12,10.0,East,6.9,-,N/A,,Partly Cloudy,90,2012-11-10 23:55:00
4:55 PM,42.1,35.1,76,30.13,10.0,East,3.5,-,N/A,,Clear,100,2012-11-11 00:55:00
5:55 PM,39.9,36.0,86,30.14,10.0,ESE,5.8,-,N/A,,Overcast,120,2012-11-11 01:55:00
6:55 PM,39.9,35.1,83,30.16,9.0,ESE,5.8,-,N/A,,Overcast,110,2012-11-11 02:55:00
7:55 PM,39.2,33.8,81,30.16,10.0,ESE,6.9,-,N/A,,Mostly Cloudy,120,2012-11-11 03:55:00
8:55 PM,39.0,35.1,86,30.17,10.0,East,6.9,-,N/A,,Scattered Clouds,90,2012-11-11 04:55:00
9:55 PM,37.9,35.1,89,30.17,10.0,ESE,5.8,-,N/A,,Partly Cloudy,110,2012-11-11 05:55:00
10:55 PM,37.9,35.1,89,30.17,6.0,ESE,4.6,-,N/A,,Mostly Cloudy,110,2012-11-11 06:55:00
11:55 PM,37.9,35.1,89,30.18,10.0,East,3.5,-,N/A,,Overcast,100,2012-11-11 07:55:00